Regional Weather Roundup
Issued by NWS

Home | Current Version | Previous Version | Graphics & Text | Print | Product List | Glossary On
Versions: 1 2 3 4 5 6 7 8 9 10 11 12 13 14 15 16 17 18 19 20 21 22 23 24 25 26 27
000
ASUS45 KTFX 231610
RWRMT
MONTANA REGIONAL WEATHER ROUNDUP
NATIONAL WEATHER SERVICE GREAT FALLS MT
1000 AM MDT FRI JUN 23 2017

NOTE: "FAIR" INDICATES FEW OR NO CLOUDS BELOW 12000 FEET WITH NO
SIGNIFICANT WEATHER AND/OR OBSTRUCTIONS TO VISIBILITY.

MTZ001>007-043-231700-
WEST OF THE DIVIDE

CITY           SKY/WX    TMP DP  RH WIND       PRES   REMARKS
KALISPELL      MOSUNNY   62  44  51 VRB6      30.26F
MISSOULA       SUNNY     57  37  47 CALM      30.29F
BUTTE          SUNNY     55  29  36 CALM      30.33S
MULLAN PASS    SUNNY     54  32  43 CALM      30.33S
ANACONDA         N/A     55  36  47 CALM      30.31F
DEER LODGE       N/A     55  36  47 CALM      30.34S
EUREKA           N/A     61  39  44 MISG      30.28S
HAMILTON         N/A     59  36  41 CALM      30.29S
$$

MTZ008-052>055-231700-
SOUTHWEST MONTANA

CITY           SKY/WX    TMP DP  RH WIND       PRES   REMARKS
BOZEMAN        SUNNY     57  37  47 NE5       30.32S
DILLON         SUNNY     54  35  48 CALM      30.31F
W YELLOWSTONE  SUNNY     54  21  28 VRB7G15   30.33F
ENNIS          SUNNY     54  34  47 CALM      30.36S
THREE FORKS      N/A     57  37  47 CALM      30.28S
$$

MTZ009-010-012-014-046-048-049-054-231700-
EAST SLOPES AND CENTRAL MONTANA

CITY           SKY/WX    TMP DP  RH WIND       PRES   REMARKS
CUT BANK       CLOUDY    54  40  59 NW7       30.32S
GREAT FALLS    MOSUNNY   57  36  45 CALM      30.31F
MALMSTROM AFB  MOSUNNY   57  39  50 W3        30.31F
HELENA         SUNNY     58  38  47 CALM      30.31F
CHOTEAU          N/A     57  39  51 N6        30.33S
$$

MTZ011-013-016-021-045-047-050-051-231700-
NORTH CENTRAL MONTANA

CITY           SKY/WX    TMP DP  RH WIND       PRES   REMARKS
HAVRE          MOSUNNY   62  38  40 NW9       30.28F
LEWISTOWN      CLOUDY    54  36  50 W8        30.32S
N BAR RANCH    CLOUDY    55  32  41 NW13G20   30.34S
CHINOOK          N/A     59  34  38 W12G18    30.27S
FORT BENTON      N/A     61  37  41 MISG      30.32S
$$

MTZ017>020-022>027-061-062-231700-
NORTHEAST MONTANA

CITY           SKY/WX    TMP DP  RH WIND       PRES   REMARKS
GLASGOW        SUNNY     60  35  39 NW18G26   30.22S
SIDNEY         MOSUNNY   59  35  40 NW25G36   30.16S
WOLF POINT     CLOUDY    62  31  31 NW18      30.20S
MALTA          MOSUNNY   61  32  33 NW14G25   30.25S
PLENTYWOOD       N/A     55  36  47 NW24G39   30.11F
POPLAR           N/A     57  32  38 NW17G29   30.19R
$$

MTZ028>42-056>058-231700-
SOUTHCENTRAL AND SOUTHEAST MONTANA

CITY           SKY/WX    TMP DP  RH WIND       PRES   REMARKS
BAKER          MOSUNNY   57  31  37 NW25G31   30.21F
BILLINGS       MOSUNNY   57  38  48 S5        30.30F
LIVINGSTON     SUNNY     57  36  45 VRB3      30.31F
MILES CITY     MOSUNNY   61  31  32 N18G29    30.25S
BIG TIMBER     PTSUNNY   57  37  47 CALM      30.34S
FORSYTH          N/A     59  32  36 NW9G20    30.26F
ROUNDUP          N/A     59  30  33 NW12      30.19S
$$

REGIONAL REPORTS...DAKOTAS

CITY           SKY/WX    TMP DP  RH WIND       PRES   REMARKS
WILLISTON      PTSUNNY   60  37  42 NW20G33   30.13F
MINOT          PTSUNNY   58  38  47 W25G35    30.02S
DICKINSON      MOSUNNY   55  30  38 NW28G36   30.12F
BEACH          CLOUDY    54  32  43 NW21G26   30.22S
CROSBY         PTSUNNY   55  37  50 NW29G36   30.09F
TIOGA          CLOUDY    54  43  66 NW24G32   30.10F
WATFORD CITY   PTSUNNY   55  37  50 NW22G30   30.13S
BISMARCK       SUNNY     60  35  39 NW23G39   30.06F
GRAND FORKS    CLOUDY    61  51  70 NW22G31   29.85R
FARGO          CLOUDY    61  50  67 NW20G26   29.87R
BUFFALO SD       N/A     59  33  37 NW31G40   30.11F
RAPID CITY     PTSUNNY   58  38  47 NW24G30   30.20S
$$

REGIONAL REPORTS...WYOMING/IDAHO/WASHINGTON

CITY           SKY/WX    TMP DP  RH WIND       PRES   REMARKS
GILLETTE       SUNNY     57  33  40 NW20G28   30.27S
SHERIDAN       SUNNY     60  35  39 N13       30.29S
BUFFALO WY     SUNNY     56  37  49 N14G24    30.30S
CODY           SUNNY     59  23  25 CALM      30.32S
YELLOWSTONE LA   N/A     48  31  51 VRB3      30.37S
IDAHO FALLS    SUNNY     61  36  39 N14       30.28R
SALMON         SUNNY     55  34  44 CALM      30.29F
BOISE          SUNNY     63  36  36 NW5       30.21S
SPOKANE        SUNNY     67  36  31 NE8       30.26S
$$

REGIONAL REPORTS...ALBERTA

CITY           SKY/WX    TMP DP  RH WIND       PRES   REMARKS
EDMONTON       MOSUNNY   61  46  59 NW9       30.20S
CALGARY        MOSUNNY   59  34  38 N13       30.30R
LETHBRIDGE     MOSUNNY   57  41  54 W12G20    30.30S
MEDICINE HAT   MOSUNNY   61  43  51 NW9G18    30.25F
CARDSTON         N/A     59  41  51 S1          N/A
MILK RIVER       N/A     59  41  51 NW8         N/A
$$

REGIONAL REPORTS...SASKATCHEWAN

CITY           SKY/WX    TMP DP  RH WIND       PRES   REMARKS
SWIFT CURRENT  SUNNY     52  41  66 NW16      30.19F
REGINA         PTSUNNY   54  36  50 NW32G41   30.11S
SASKATOON      MOSUNNY   57  37  47 NW23G29   30.14F
CYPRESS HILLS    N/A     50  32  50 NW12G20     N/A
VAL MARIE        N/A     57  34  41 NW18G26     N/A
ROCKGLEN         N/A     52  36  54 NW18G25     N/A
ASSINIBOIA       N/A     61  45  55 NW14        N/A
$$




USA.gov is the U.S. government's official web portal to all federal, state and local government web resources and services.